Location: Oak Glen
(34.0495°N, 116.9470°E)
Time: 03:43:21
(UTC-07:00)

Vanguard 1 Rocket - All Passes

Search period start: 16 July 2018 00:00
Search period end: 26 July 2018 00:00
Orbit: 652 x 4225 km, 34.3° (Epoch: 15 July)

Date Brightness Start Highest point End Pass type
(mag) Time Alt. Az. Time Alt. Az. Time Alt. Az.
16 Jul - 15:00:26 10° SSW 15:20:47 33° SE 15:34:43 10° E daylight
16 Jul - 17:29:25 10° SW 17:50:47 64° SSE 18:01:55 10° E daylight
16 Jul - 20:03:21 10° W 20:18:58 90° N 20:26:35 10° E daylight
16 Jul - 22:35:52 10° W 22:45:14 70° SSW 22:50:30 10° ESE daylight
17 Jul - 01:06:21 10° WSW 01:09:10 14° SW 01:11:40 10° S daylight
17 Jul - 13:49:30 10° S 14:06:48 23° SE 14:20:32 10° E visible
17 Jul - 16:14:40 10° SW 16:37:24 53° SSE 16:50:38 10° E daylight
17 Jul - 18:47:28 10° WSW 19:06:40 83° SSE 19:16:02 10° E daylight
17 Jul - 21:21:34 10° W 21:33:59 87° S 21:40:19 10° E daylight
17 Jul - 23:52:32 10° W 23:58:54 32° SW 00:03:14 10° SSE daylight
18 Jul - 12:42:43 10° SSE 12:52:43 14° SE 13:01:55 10° ESE visible
18 Jul - 15:01:07 10° SSW 15:23:33 41° SSE 15:38:35 10° E daylight
18 Jul - 17:31:34 10° WSW 17:53:45 73° SSE 18:05:14 10° E daylight
18 Jul - 20:06:14 10° W 20:22:11 88° N 20:29:56 10° E daylight
18 Jul - 22:38:53 10° W 22:48:20 58° SSW 22:53:40 10° SE daylight
19 Jul - 13:49:12 10° SSW 14:09:28 30° SE 14:25:11 10° E visible
19 Jul - 16:16:20 10° SW 16:40:14 61° SSE 16:54:01 10° E daylight
19 Jul - 18:50:09 10° WSW 19:09:47 88° S 19:19:21 10° E daylight
19 Jul - 21:24:31 10° W 21:37:12 80° SSW 21:43:37 10° ESE daylight
19 Jul - 23:56:00 10° W 00:01:43 24° SW 00:05:47 10° SSE daylight
20 Jul - 12:39:50 10° S 12:55:23 20° SE 13:09:13 10° E visible
20 Jul - 15:02:16 10° SW 15:26:14 49° SSE 15:42:08 10° E daylight
20 Jul - 17:33:56 10° WSW 17:56:45 80° SSE 18:08:31 10° E daylight
20 Jul - 20:09:08 10° W 20:25:24 90° N 20:33:17 10° E daylight
20 Jul - 22:41:57 10° W 22:51:18 46° SSW 22:56:40 10° SE daylight
21 Jul - 13:49:41 10° SSW 14:12:00 38° SE 14:29:13 10° E visible
21 Jul - 16:18:18 10° SW 16:43:03 70° SSE 16:57:18 10° ENE daylight
21 Jul - 18:52:56 10° W 19:12:55 89° N 19:22:41 10° E daylight
21 Jul - 21:27:25 10° WNW 21:40:19 71° SSW 21:46:50 10° ESE daylight
21 Jul - 23:59:52 10° W 00:04:23 17° SW 00:07:51 10° S daylight
22 Jul - 12:39:04 10° S 12:57:50 26° SE 13:14:27 10° E visible
22 Jul - 15:03:48 10° SW 15:28:52 58° SSE 15:45:30 10° ENE daylight
22 Jul - 17:36:29 10° WSW 17:59:44 86° SSE 18:11:48 10° E daylight
22 Jul - 20:12:00 10° W 20:28:34 86° SSW 20:36:36 10° ESE daylight
22 Jul - 22:45:05 10° W 22:54:08 36° SW 22:59:29 10° SSE daylight
23 Jul - 11:32:05 10° SSE 11:43:58 15° SE 11:55:36 10° ESE visible
23 Jul - 13:50:42 10° SSW 14:14:26 45° SE 14:32:51 10° E visible
23 Jul - 16:20:32 10° WSW 16:45:53 77° SSE 17:00:32 10° ENE daylight
23 Jul - 18:55:45 10° W 19:16:04 89° N 19:26:00 10° E daylight
23 Jul - 21:30:19 10° WNW 21:43:18 60° SSW 21:49:58 10° SE daylight
24 Jul - 00:04:51 10° WSW 00:06:55 11° SW 00:08:46 10° SSW daylight
24 Jul - 12:39:18 10° SSW 13:00:08 33° SE 13:18:47 10° E visible
24 Jul - 15:05:39 10° SW 15:31:29 66° SSE 15:48:45 10° ENE daylight
24 Jul - 17:39:10 10° W 18:02:46 89° S 18:15:05 10° E daylight
24 Jul - 20:14:50 10° W 20:31:40 80° SSW 20:39:52 10° ESE daylight
24 Jul - 22:48:23 10° W 22:56:46 28° SW 23:02:03 10° SSE daylight
25 Jul - 11:30:18 10° S 11:46:14 21° SE 12:02:05 10° E visible
25 Jul - 13:52:09 10° SW 14:16:50 53° SSE 14:36:14 10° ENE visible
25 Jul - 16:22:59 10° WSW 16:48:44 83° SSE 17:03:45 10° E daylight
25 Jul - 18:58:35 10° W 19:19:11 89° SSW 19:29:18 10° E daylight
25 Jul - 21:33:13 10° WNW 21:46:08 50° SW 21:52:57 10° SE daylight
